(502790) = 2015 DQ99

Discovered at Kitt Peak on 2006-03-23 by Spacewatch.

Orbit

Orbit type: Main Belt

Note: WebGL enabled browser required.

epoch2024-03-31.0
epoch JD2460400.5
perihelion date2023-09-18.98745
perihelion JD2460206.48745
argument of perihelion (°)302.59362
ascending node (°)170.62673
inclination (°)6.30615
eccentricity0.0425592
perihelion distance (AU)2.6650023
Tisserand w.r.t. Jupiter3.3
ΔV w.r.t. Earth (km/sec)10.4
semimajor axis (AU)2.7834644
mean anomaly (°)41.17704
mean daily motion (°/day)0.21223910
aphelion distance (AU)2.902
period (years)4.64
P-vector [x]-0.39509853
P-vector [y]0.87535825
P-vector [z]0.27864867
Q-vector [x]-0.91846455
Q-vector [y]-0.38231949
Q-vector [z]-0.10126539
absolute magnitude16.54
phase slope0.15
uncertainty0
referenceMPEC 2024-E73
observations used296
oppositions15
arc length (days)7463
first opposition used2003
last opposition used2024
residual rms (arc-secs)0.71
perturbers coarse indicatorM-v
perturbers precise indicator003Ek
first observation date used2003-09-29.0
last observation date used2024-03-05.0
computer nameMPCLINUX
JD of orbit computation2458026.368791
perihelion JD uncertainty (days)2.9818E-04
argument of perihelion uncertainty (°)7.0072E-05
ascending node uncertainty (°)2.6933E-05
inclination uncertainty (°)5.4293E-06
eccentricity uncertainty 2.8376E-08
perihelion distance uncertainty (AU)8.2743E-08
Minimum Orbit Intersection Distances (in AU)
for orbit epoch: 2460400.5, reference: E2024-G88
Mercury2.33564
Venus1.95434
Earth1.68787
Mars1.03234
Jupiter2.12708
Saturn6.37955
Uranus15.7257
Neptune27.0462

Observations

300 total observations over interval: 2003 09 29.21695 – 2024 03 05.218939
These data are available for download (format description).

Date (UT) J2000 RA J2000 Dec Magn Location Ref
2003 09 29.21695 23 58 01.63 -02 06 09.4 20.7 V 691 – Steward Observatory, Kitt Peak-Spacewatch MPS 815670
2003 09 29.26393 23 57 59.45 -02 06 29.1 20.8 V 691 – Steward Observatory, Kitt Peak-Spacewatch MPS 815670
2003 09 29.29161 23 57 58.15 -02 06 40.8 20.7 V 691 – Steward Observatory, Kitt Peak-Spacewatch MPS 815670
2006 03 23.36601 14 11 58.82 -08 02 50.9 21.0 V 691 – Steward Observatory, Kitt Peak-Spacewatch MPS 615177
2006 03 23.38344 14 11 58.30 -08 02 45.2 20.9 V 691 – Steward Observatory, Kitt Peak-Spacewatch MPS 615177
2006 03 23.40084 14 11 57.79 -08 02 39.6 21.1 V 691 – Steward Observatory, Kitt Peak-Spacewatch MPS 615177
2006 04 09.24032 14 01 29.89 -06 19 30.4   291 – LPL/Spacewatch II MPS 615177
2006 04 09.25180 14 01 29.38 -06 19 26.0   291 – LPL/Spacewatch II MPS 615177
2006 04 09.26534 14 01 28.77 -06 19 21.0   291 – LPL/Spacewatch II MPS 615177
2006 04 09.28059 14 01 28.02 -06 19 15.2 20.2 V G96 – Mt. Lemmon Survey MPS 815670
2006 04 09.28722 14 01 27.73 -06 19 12.6 20.2 V G96 – Mt. Lemmon Survey MPS 815670
2006 04 09.29389 14 01 27.40 -06 19 09.9 20.5 V G96 – Mt. Lemmon Survey MPS 815670
2006 04 09.30053 14 01 27.12 -06 19 07.3 20.7 V G96 – Mt. Lemmon Survey MPS 815670
2007 06 18.43213 20 30 24.14 -11 17 16.6 20.8 V 691 – Steward Observatory, Kitt Peak-Spacewatch MPS 615177
2007 06 18.44981 20 30 23.69 -11 17 16.3 21.1 V 691 – Steward Observatory, Kitt Peak-Spacewatch MPS 615177
2007 06 18.46751 20 30 23.25 -11 17 17.4 21.3 V 691 – Steward Observatory, Kitt Peak-Spacewatch MPS 615177
2007 06 26.35406 20 26 46.11 -11 24 33.0   691 – Steward Observatory, Kitt Peak-Spacewatch MPS 615177
2007 06 26.37173 20 26 45.53 -11 24 33.9   691 – Steward Observatory, Kitt Peak-Spacewatch MPS 615177
2007 06 26.38939 20 26 44.93 -11 24 36.0   691 – Steward Observatory, Kitt Peak-Spacewatch MPS 615177
2008 09 23.46070 02 37 54.72 +09 47 47.4 20.8 V 691 – Steward Observatory, Kitt Peak-Spacewatch MPS 615177
2008 09 23.47833 02 37 54.33 +09 47 42.6 20.9 V 691 – Steward Observatory, Kitt Peak-Spacewatch MPS 615177
2008 09 23.49598 02 37 54.01 +09 47 37.6 20.7 V 691 – Steward Observatory, Kitt Peak-Spacewatch MPS 615177
2008 10 22.37284 02 20 35.30 +07 01 27.9 20.4 V G96 – Mt. Lemmon Survey MPS 615177
2008 10 22.37854 02 20 35.01 +07 01 25.7 20.2 V G96 – Mt. Lemmon Survey MPS 615177
2008 10 22.38423 02 20 34.76 +07 01 23.5 20.1 V G96 – Mt. Lemmon Survey MPS 615177
2008 10 22.38994 02 20 34.47 +07 01 21.0 20.1 V G96 – Mt. Lemmon Survey MPS 615177
2010 01 08.40787 09 53 06.74 +07 02 51.3 20.6 V 691 – Steward Observatory, Kitt Peak-Spacewatch MPS 615177
2010 01 08.42551 09 53 06.27 +07 02 53.1 20.5 V 691 – Steward Observatory, Kitt Peak-Spacewatch MPS 615177
2010 01 08.44315 09 53 05.95 +07 02 55.7 20.5 V 691 – Steward Observatory, Kitt Peak-Spacewatch MPS 615177
2010 02 17.33796 09 25 31.26 +10 18 42.4 20.1 V G96 – Mt. Lemmon Survey MPS 615177
2010 02 17.34327 09 25 30.97 +10 18 44.7 20.0 V G96 – Mt. Lemmon Survey MPS 615177
2010 02 17.34865 09 25 30.72 +10 18 46.5 20.1 V G96 – Mt. Lemmon Survey MPS 615177
2011 05 26.24535 16 07 05.79 -11 29 43.3 20.6 V 691 – Steward Observatory, Kitt Peak-Spacewatch MPS 615177
2011 05 26.26312 16 07 04.84 -11 29 39.9 20.8 V 691 – Steward Observatory, Kitt Peak-Spacewatch MPS 615177
2011 05 26.28090 16 07 03.87 -11 29 36.5 20.6 V 691 – Steward Observatory, Kitt Peak-Spacewatch MPS 615177
2011 06 09.22874 15 55 42.42 -10 57 47.1 20.6 V 691 – Steward Observatory, Kitt Peak-Spacewatch MPS 615177
2011 06 09.24653 15 55 41.61 -10 57 46.0 21.2 V 691 – Steward Observatory, Kitt Peak-Spacewatch MPS 615177
2011 06 09.26430 15 55 40.82 -10 57 43.8 20.6 V 691 – Steward Observatory, Kitt Peak-Spacewatch MPS 615177
2012 08 26.35521 22 13 19.844 -07 47 23.15 20.0 i F51 – Pan-STARRS 1, Haleakala MPS 815670
2012 08 26.36688 22 13 19.281 -07 47 27.69 20.2 i F51 – Pan-STARRS 1, Haleakala MPS 815670
2012 08 26.45902 22 13 14.831 -07 48 03.43 20.0 r F51 – Pan-STARRS 1, Haleakala MPS 815670
2013 11 27.37376 04 49 32.720 +12 40 24.33 20.2 w F51 – Pan-STARRS 1, Haleakala MPS 615177
2013 11 27.38898 04 49 31.875 +12 40 22.00 20.2 w F51 – Pan-STARRS 1, Haleakala MPS 615177
2013 11 27.40430 04 49 31.023 +12 40 19.66 20.2 w F51 – Pan-STARRS 1, Haleakala MPS 615177
2014 01 01.19171 04 21 28.91 +12 06 19.1 19.7 V G96 – Mt. Lemmon Survey MPS 615177
2014 01 01.19808 04 21 28.69 +12 06 19.8 19.8 V G96 – Mt. Lemmon Survey MPS 615177
2014 01 01.20446 04 21 28.49 +12 06 20.2 20.1 V G96 – Mt. Lemmon Survey MPS 615177
2014 01 01.21083 04 21 28.26 +12 06 20.4 20.0 V G96 – Mt. Lemmon Survey MPS 615177
2015 01 19.46914 12 20 32.89 -02 53 02.4 20.9 V G96 – Mt. Lemmon Survey MPS 612680
2015 01 19.47395 12 20 32.98 -02 53 01.9 20.5 V G96 – Mt. Lemmon Survey MPS 612680
2015 01 19.47875 12 20 33.05 -02 53 02.2 21.0 V G96 – Mt. Lemmon Survey MPS 612680
2015 01 19.48355 12 20 33.15 -02 53 02.9 20.8 V G96 – Mt. Lemmon Survey MPS 612680
2015 01 23.53782 12 21 44.248 -02 53 18.69 21.0 w F51 – Pan-STARRS 1, Haleakala MPS 612680
2015 01 23.55316 12 21 44.453 -02 53 18.30 21.0 w F51 – Pan-STARRS 1, Haleakala MPS 612680
2015 01 23.55647 12 21 44.500 -02 53 18.39 21.1 w F51 – Pan-STARRS 1, Haleakala MPS 815670
2015 01 23.57186 12 21 44.692 -02 53 17.98 21.4 w F51 – Pan-STARRS 1, Haleakala MPS 815670
2015 01 23.58726 12 21 44.899 -02 53 17.81 21.0 w F51 – Pan-STARRS 1, Haleakala MPS 815670
2015 02 11.46362 12 22 07.54 -02 16 25.8 20.2 V G96 – Mt. Lemmon Survey MPS 815670
2015 02 11.47112 12 22 07.46 -02 16 24.5 20.3 V G96 – Mt. Lemmon Survey MPS 815670
2015 02 11.47864 12 22 07.29 -02 16 22.5 20.4 V G96 – Mt. Lemmon Survey MPS 815670
2015 02 11.48995 12 22 07.11 -02 16 19.7 20.5 V G96 – Mt. Lemmon Survey MPS 815670
2015 02 16.52180 12 20 46.171 -01 55 46.05 20.6 w F51 – Pan-STARRS 1, Haleakala MPS 580718
2015 02 16.53447 12 20 45.901 -01 55 42.72 20.6 w F51 – Pan-STARRS 1, Haleakala MPS 580718
2015 02 16.54718 12 20 45.625 -01 55 39.27 20.7 w F51 – Pan-STARRS 1, Haleakala MPS 580718
2015 02 18.35483 12 20 07.86 -01 47 13.0 20.6 V 691 – Steward Observatory, Kitt Peak-Spacewatch MPS 580718
2015 02 18.37456 12 20 07.38 -01 47 07.6 20.6 V 691 – Steward Observatory, Kitt Peak-Spacewatch MPS 580718
2015 02 18.39434 12 20 06.89 -01 47 01.8 20.6 V 691 – Steward Observatory, Kitt Peak-Spacewatch MPS 580718
2015 02 26.39334 12 16 27.86 -01 03 28.7 20.6 V 691 – Steward Observatory, Kitt Peak-Spacewatch MPS 815670
2015 02 26.41252 12 16 27.20 -01 03 21.1 20.6 V 691 – Steward Observatory, Kitt Peak-Spacewatch MPS 815670
2015 02 26.43168 12 16 26.56 -01 03 13.8 20.6 V 691 – Steward Observatory, Kitt Peak-Spacewatch MPS 815670
2015 02 27.55094 12 15 49.780 -00 56 23.82 20.4 w F51 – Pan-STARRS 1, Haleakala MPS 815670
2015 02 27.56350 12 15 49.339 -00 56 19.10 20.5 w F51 – Pan-STARRS 1, Haleakala MPS 815670
2015 02 27.57600 12 15 48.896 -00 56 14.41 20.4 w F51 – Pan-STARRS 1, Haleakala MPS 815670
2015 02 27.58853 12 15 48.459 -00 56 09.85 20.5 w F51 – Pan-STARRS 1, Haleakala MPS 815670
2015 03 10.35607 12 08 53.50 +00 16 31.6 20.4 V 691 – Steward Observatory, Kitt Peak-Spacewatch MPS 815670
2015 03 10.37496 12 08 52.68 +00 16 39.9 20.6 V 691 – Steward Observatory, Kitt Peak-Spacewatch MPS 815670
2015 03 10.39385 12 08 51.83 +00 16 47.9 20.7 V 691 – Steward Observatory, Kitt Peak-Spacewatch MPS 815670
2015 03 16.33497 12 04 28.75 +01 00 29.8 19.9 V 703 – Catalina Sky Survey MPS 815670
2015 03 16.34325 12 04 28.32 +01 00 34.2 21.1 V 703 – Catalina Sky Survey MPS 815670
2015 03 16.35150 12 04 27.97 +01 00 38.4 19.7 V 703 – Catalina Sky Survey MPS 815670
2015 03 16.35978 12 04 27.53 +01 00 42.6 19.4 V 703 – Catalina Sky Survey MPS 815670
2015 03 21.68794 12 00 22.74 +01 40 30.2 20.3 R D29 – Purple Mountain Observatory, XuYi Station MPS 595431
2015 03 21.70205 12 00 22.04 +01 40 36.4 20.4 R D29 – Purple Mountain Observatory, XuYi Station MPS 595431
2015 03 21.71616 12 00 21.37 +01 40 42.3 19.9 R D29 – Purple Mountain Observatory, XuYi Station MPS 595431
2015 03 23.18619 11 59 13.85 +01 51 37.3 20.1 R 695 – Kitt Peak MPS 598579
2015 03 23.24976 11 59 10.84 +01 52 05.5   695 – Kitt Peak MPS 598579
2015 03 23.30897 11 59 08.02 +01 52 31.6   695 – Kitt Peak MPS 598579
